MPEC 2005-R58 : 2005 RV24

The following Minor Planet Electronic Circular may be linked-to from your own Web pages, but must not otherwise be redistributed electronically.


Read MPEC 2005-R57 Read MPEC 2005-R59


M.P.E.C. 2005-R58                                Issued 2005 Sept. 13, 10:59 UT

     The Minor Planet Electronic Circulars contain information on unusual
         minor planets and routine data on comets.  They are published
   on behalf of Commission 20 of the International Astronomical Union by the
          Minor Planet Center, Smithsonian Astrophysical Observatory,
                          Cambridge, MA 02138, U.S.A.

                  Supported in part by the Brinson Foundation
             Prepared using the Tamkin Foundation Computer Network

                              MPC@CFA.HARVARD.EDU
          URL http://cfa-www.harvard.edu/iau/mpc.html  ISSN 1523-6714

                                   2005 RV24

Observations:
     K05R24V* C2005 09 09.18046 20 49 45.71 +03 37 25.5          17.6   ER058704
     K05R24V  C2005 09 09.19169 20 49 48.26 +03 34 16.3          17.6   ER058704
     K05R24V  C2005 09 09.20288 20 49 50.78 +03 31 08.5          17.7   ER058704
     K05R24V  C2005 09 09.21417 20 49 53.31 +03 27 59.1          17.8   ER058704
     K05R24V  C2005 09 09.22556 20 49 55.95 +03 24 48.7          19.7   ER058704
     K05R24V  C2005 09 12.22494 20 59 05.33 -06 33 47.6          18.6   ER058608
     K05R24V  C2005 09 12.23542 20 59 06.62 -06 35 16.9          18.9   ER058608
     K05R24V  C2005 09 12.24612 20 59 07.93 -06 36 48.6          19.4   ER058608
     K05R24V  C2005 09 13.25903 21 01 13.95 -08 46 42.2          18.7 R ER058854
     K05R24V  C2005 09 13.26479 21 01 14.48 -08 47 21.9          18.7 R ER058854
     K05R24V  C2005 09 13.27054 21 01 15.13 -08 48 02.2          18.7 R ER058854
     K05R24V 2C2005 09 13.29901 21 01 17.99 -08 51 18.3          18.3 R ER058H06
     K05R24V 2C2005 09 13.30274 21 01 18.36 -08 51 46.4          18.6 R ER058H06
     K05R24V 2C2005 09 13.30646 21 01 18.72 -08 52 10.2          18.6 R ER058H06

Observer details:
608 Haleakala-NEAT/MSSS.  Observers R. Bambery, M. Hicks, K. Lawrence,
    E. Helin, P. Kervin, J. Africano.  1.2-m reflector + CCD.
704 Lincoln Laboratory ETS, New Mexico.  Observers M. Bezpalko, L. Manguso,
    D. Torres, R. Kracke, A. Milner, H. Love.  Measurers J. Stuart, R. Sayer,
    J. Evans, J. Kommers.  1.0-m f/2.15 reflector + CCD.
854 Sabino Canyon Observatory, Tucson.  Observer J. E. McGaha.  0.36-m f/10.0
    Schmidt-Cassegrain + CCD.
H06 New Mexico Skies Observatory.  Observer R. Hutsebaut.  0.25-m reflector
    + CCD.

Orbital elements:
2005 RV24
Epoch 2005 Sept. 7.0 TT = JDT 2453620.5                 MPC
M  19.88064              (2000.0)            P               Q
n   0.45874706     Peri.   33.82441     -0.91014279     +0.38666688
a   1.6650241      Node   166.24871     -0.34431835     -0.90565807
e   0.8959121      Incl.   38.74095     +0.23040177     +0.17398902
P   2.15           H   20.5           G   0.15
From 14 observations 2005 Sept. 9-13.

Ephemeris:
2005 RV24                a,e,i = 1.67, 0.90, 39                  q = 0.1733
Date    TT    R. A. (2000) Decl.     Delta      r     Elong.  Phase     V
2005 09 07    20 37.34   +17 23.5    0.105    1.087   137.1    39.1    17.3
2005 09 08    20 44.02   +10 05.6    0.120    1.104   141.2    34.9    17.6
2005 09 09    20 48.99   +04 30.0    0.137    1.120   143.5    32.3    17.8
2005 09 10    20 52.85   +00 09.6    0.155    1.137   144.5    30.9    18.1
2005 09 11    20 55.96   -03 15.8    0.174    1.153   144.8    30.2    18.3
2005 09 12    20 58.53   -06 00.8    0.193    1.169   144.6    29.9    18.6
2005 09 13    21 00.73   -08 15.3    0.213    1.185   144.1    29.9    18.8
2005 09 14    21 02.63   -10 06.8    0.233    1.201   143.4    29.9    19.0
2005 09 15    21 04.31   -11 40.2    0.253    1.217   142.6    30.1    19.2
2005 09 16    21 05.82   -12 59.5    0.274    1.232   141.7    30.3    19.5
2005 09 17    21 07.20   -14 07.4    0.295    1.248   140.8    30.6    19.6
2005 09 18    21 08.47   -15 06.0    0.316    1.263   139.9    30.8    19.8
2005 09 19    21 09.65   -15 57.1    0.337    1.278   139.0    31.1    20.0
2005 09 20    21 10.76   -16 41.8    0.358    1.293   138.0    31.3    20.2
2005 09 21    21 11.82   -17 21.2    0.379    1.308   137.1    31.5    20.3
2005 09 22    21 12.83   -17 56.1    0.401    1.322   136.2    31.7    20.5
2005 09 23    21 13.81   -18 27.1    0.422    1.337   135.2    31.9    20.6
2005 09 24    21 14.75   -18 54.8    0.444    1.351   134.3    32.1    20.8
2005 09 25    21 15.68   -19 19.5    0.466    1.366   133.4    32.2    20.9
2005 09 26    21 16.58   -19 41.7    0.488    1.380   132.5    32.4    21.0
2005 09 27    21 17.47   -20 01.6    0.510    1.394   131.6    32.5    21.1

Timothy B. Spahr             (C) Copyright 2005 MPC           M.P.E.C. 2005-R58

Read MPEC 2005-R57 Read MPEC 2005-R59


Our Web policy. Index to the CBAT/MPC/ICQ pages.

MPC

Valid HTML 4.01!